Date String (YYYY-MM-DD hh:mm:ss) UTC,Instrument flags,Ambient pressure (hPa),Sample flow (lpm),Bypass flow (lpm),Sample temperature (°C),Ambient temperature (°C),ASC tube jacket temperature (°C),LED temperature (°C),Box temperature (°C),Sample RH (%),Span deviation,Mass concentration (μg/m³),Mass concentration (μg/m³),Mass concentration (μg/m³)
DateTimeUTC,F1_M11,P_M11,Q1_M11,Q2_M11,T1_M11,T2_M11,T3_M11,T4_M11,T5_M11,U1_M11,ZSPAN_M11,X0_M11,X2_M11,X1_M11
2021-11-24 17:00:00,,0826.0,4.99,0.00,22.2,21.7,00.0,31.2,24.1,11.8,0000.0,0016.01,0003.62,0001.75
2021-11-24 17:01:00,,0826.1,5.00,0.00,22.2,21.7,00.0,31.2,24.1,11.7,0000.0,0015.51,0003.53,0001.71
2021-11-24 17:02:00,,0826.2,5.01,0.00,22.2,21.7,00.0,31.2,24.1,11.6,0000.0,0016.03,0003.48,0001.67
2021-11-24 17:03:00,,0826.2,4.99,0.00,22.3,21.7,00.0,31.2,24.1,11.5,0000.0,0016.03,0003.36,0001.62
2021-11-24 17:04:00,,0826.2,5.01,0.00,22.3,21.7,00.0,31.2,24.1,11.5,0000.0,0015.17,0003.23,0001.55
2021-11-24 17:05:00,,0826.2,4.98,0.00,22.3,21.7,00.0,31.3,24.1,11.4,0000.0,0014.45,0003.15,0001.53
2021-11-24 17:06:00,,0826.2,5.01,0.00,22.3,21.8,00.0,31.3,24.1,11.5,0000.0,0013.77,0003.05,0001.50
2021-11-24 17:07:00,,0826.2,4.99,0.00,22.3,21.8,00.0,31.3,24.1,11.4,0000.0,0014.19,0002.84,0001.46
2021-11-24 17:08:00,,0826.2,5.01,0.00,22.3,21.8,00.0,31.3,24.1,11.4,0000.0,0013.74,0002.76,0001.42
2021-11-24 17:09:00,,0826.2,5.01,0.00,22.3,21.8,00.0,31.3,24.2,11.4,0000.0,0013.71,0002.77,0001.40
2021-11-24 17:10:00,,0826.2,4.99,0.00,22.4,21.8,00.0,31.3,24.2,11.4,0000.0,0013.89,0002.80,0001.38
2021-11-24 17:11:00,,0826.3,5.01,0.00,22.4,21.8,00.0,31.3,24.3,11.3,0000.0,0013.81,0002.79,0001.37
2021-11-24 17:12:00,,0826.2,4.99,0.00,22.4,21.8,00.0,31.3,24.3,11.2,0000.0,0014.00,0002.79,0001.36
2021-11-24 17:13:00,,0826.3,5.00,0.00,22.4,21.9,00.0,31.3,24.3,11.3,0000.0,0013.72,0002.77,0001.35
2021-11-24 17:14:00,,0826.4,4.98,0.00,22.4,21.9,00.0,31.3,24.3,11.3,0000.0,0013.17,0002.76,0001.35
2021-11-24 17:15:00,,0826.2,5.01,0.00,22.4,21.9,00.0,31.4,24.3,11.3,0000.0,0013.75,0002.83,0001.37
2021-11-24 17:16:00,,0826.2,4.99,0.00,22.5,21.9,00.0,31.4,24.3,11.4,0000.0,0014.00,0002.82,0001.36
2021-11-24 17:17:00,,0826.2,5.01,0.00,22.5,21.9,00.0,31.4,24.3,11.3,0000.0,0014.52,0002.88,0001.37
2021-11-24 17:18:00,,0826.3,5.00,0.00,22.5,21.9,00.0,31.4,24.3,11.3,0000.0,0013.39,0002.97,0001.38
2021-11-24 17:19:00,,0826.3,5.01,0.00,22.5,21.9,00.0,31.4,24.3,11.3,0000.0,0013.28,0002.99,0001.39
2021-11-24 17:20:00,,0826.4,4.99,0.00,22.5,22.0,00.0,31.4,24.3,11.4,0000.0,0013.50,0003.00,0001.41
2021-11-24 17:21:00,,0826.5,5.00,0.00,22.5,22.0,00.0,31.4,24.3,11.3,0000.0,0013.86,0002.93,0001.41
2021-11-24 17:22:00,,0826.5,5.01,0.00,22.5,22.0,00.0,31.5,24.4,11.2,0000.0,0013.51,0002.86,0001.44
2021-11-24 17:23:00,,0826.5,4.98,0.00,22.6,22.0,00.0,31.5,24.4,11.3,0000.0,0013.53,0002.88,0001.46
2021-11-24 17:24:00,,0826.5,5.00,0.00,22.6,22.0,00.0,31.5,24.4,11.3,0000.0,0012.72,0002.88,0001.49
2021-11-24 17:25:00,,0826.5,5.01,0.00,22.6,22.0,00.0,31.5,24.5,11.4,0000.0,0012.15,0002.91,0001.52
2021-11-24 17:26:00,,0826.5,5.00,0.00,22.6,22.0,00.0,31.5,24.4,11.4,0000.0,0012.07,0003.03,0001.56
2021-11-24 17:27:00,,0826.6,4.99,0.00,22.6,22.0,00.0,31.5,24.5,11.3,0000.0,0012.62,0003.16,0001.60
2021-11-24 17:28:00,,0826.6,5.01,0.00,22.6,22.0,00.0,31.5,24.5,11.3,0000.0,0012.49,0003.19,0001.64
2021-11-24 17:29:00,,0826.5,5.00,0.00,22.6,22.1,00.0,31.5,24.5,11.3,0000.0,0012.39,0003.22,0001.69
2021-11-24 17:30:00,,0826.5,5.00,0.00,22.7,22.1,00.0,31.6,24.5,11.3,0000.0,0012.59,0003.25,0001.76
2021-11-24 17:31:00,,0826.5,5.00,0.00,22.7,22.1,00.0,31.6,24.5,11.2,0000.0,0012.83,0003.23,0001.79
2021-11-24 17:32:00,,0826.5,4.99,0.00,22.7,22.1,00.0,31.6,24.5,11.2,0000.0,0013.18,0003.26,0001.83
2021-11-24 17:33:00,,0826.5,5.00,0.00,22.7,22.1,00.0,31.6,24.5,11.2,0000.0,0013.41,0003.34,0001.86
2021-11-24 17:34:00,,0826.5,5.00,0.00,22.7,22.1,00.0,31.6,24.5,11.3,0000.0,0013.68,0003.37,0001.89
2021-11-24 17:35:00,,0826.5,5.00,0.00,22.7,22.1,00.0,31.6,24.5,11.3,0000.0,0013.62,0003.42,0001.91
2021-11-24 17:36:00,,0826.5,5.00,0.00,22.7,22.1,00.0,31.6,24.6,11.2,0000.0,0014.89,0003.49,0001.94
2021-11-24 17:37:00,,0826.5,5.00,0.00,22.8,22.2,00.0,31.7,24.6,11.3,0000.0,0015.09,0003.50,0001.99
2021-11-24 17:38:00,,0826.5,4.99,0.00,22.8,22.2,00.0,31.7,24.6,11.3,0000.0,0014.04,0003.49,0002.02
2021-11-24 17:39:00,,0826.5,5.01,0.00,22.8,22.2,00.0,31.7,24.6,11.3,0000.0,0013.75,0003.56,0002.04
2021-11-24 17:40:00,,0826.6,4.99,0.00,22.8,22.2,00.0,31.7,24.7,11.2,0000.0,0013.90,0003.57,0002.06
2021-11-24 17:41:00,,0826.5,5.01,0.00,22.8,22.2,00.0,31.7,24.7,11.2,0000.0,0015.09,0003.62,0002.07
2021-11-24 17:42:00,,0826.5,5.00,0.00,22.8,22.3,00.0,31.7,24.7,11.2,0000.0,0015.04,0003.65,0002.08
2021-11-24 17:43:00,,0826.5,4.99,0.00,22.9,22.3,00.0,31.7,24.7,11.2,0000.0,0014.45,0003.66,0002.11
2021-11-24 17:44:00,,0826.5,5.02,0.00,22.9,22.3,00.0,31.8,24.8,11.2,0000.0,0014.47,0003.65,0002.14
2021-11-24 17:45:00,,0826.5,5.00,0.00,22.9,22.3,00.0,31.8,24.8,11.2,0000.0,0014.67,0003.67,0002.17
2021-11-24 17:46:00,,0826.5,4.99,0.00,22.9,22.3,00.0,31.8,24.8,11.2,0000.0,0014.47,0003.71,0002.19
2021-11-24 17:47:00,,0826.5,4.99,0.00,22.9,22.4,00.0,31.8,24.8,11.1,0000.0,0013.73,0003.74,0002.21
2021-11-24 17:48:00,,0826.5,5.00,0.00,23.0,22.4,00.0,31.8,24.8,11.2,0000.0,0013.94,0003.77,0002.20
2021-11-24 17:49:00,,0826.5,5.01,0.00,23.0,22.4,00.0,31.8,24.9,11.1,0000.0,0014.55,0003.77,0002.21
2021-11-24 17:50:00,,0826.5,4.99,0.00,23.0,22.4,00.0,31.9,24.9,11.1,0000.0,0014.92,0003.72,0002.22
2021-11-24 17:51:00,,0826.5,5.00,0.00,23.1,22.5,00.0,31.9,24.9,11.1,0000.0,0014.62,0003.71,0002.24
2021-11-24 17:52:00,,0826.5,4.99,0.00,23.1,22.5,00.0,31.9,25.0,11.0,0000.0,0013.11,0003.68,0002.24
2021-11-24 17:53:00,,0826.5,5.00,0.00,23.1,22.6,00.0,31.9,25.0,11.0,0000.0,0012.95,0003.69,0002.25
2021-11-24 17:54:00,,0826.5,5.00,0.00,23.2,22.6,00.0,32.0,25.0,11.0,0000.0,0013.27,0003.68,0002.25
2021-11-24 17:55:00,,0826.5,5.00,0.00,23.2,22.6,00.0,32.0,25.0,10.9,0000.0,0013.36,0003.71,0002.26
2021-11-24 17:56:00,,0826.5,5.01,0.00,23.2,22.6,00.0,32.0,25.1,11.0,0000.0,0014.21,0003.66,0002.26
2021-11-24 17:57:00,,0826.5,5.00,0.00,23.2,22.7,00.0,32.0,25.1,10.9,0000.0,0014.72,0003.63,0002.24
2021-11-24 17:58:00,,0826.5,5.00,0.00,23.3,22.7,00.0,32.1,25.2,10.8,0000.0,0014.04,0003.57,0002.24
2021-11-24 17:59:00,,0826.5,4.98,0.00,23.3,22.7,00.0,32.1,25.2,10.9,0000.0,0013.22,0003.51,0002.25
